Time,TemperatureF,DewpointF,PressureIn,WindDirection,WindDirectionDegrees,WindSpeedMPH,WindSpeedGustMPH,Humidity,HourlyPrecipIn,Conditions,Clouds,dailyrainin,SoftwareType,DateUTC
2013-08-11 00:01:00,81.6,74.1,30.10,ENE,69,1.0,5.0,78,0.00,,,0.00,WeatherCatV1.21B27,2013-08-11 04:01:00,
2013-08-11 00:06:00,81.5,74.0,30.10,ENE,78,2.0,2.0,78,0.00,,,0.00,WeatherCatV1.21B27,2013-08-11 04:06:00,
2013-08-11 00:11:00,81.4,73.9,30.10,East,96,2.0,6.0,78,0.00,,,0.00,WeatherCatV1.21B27,2013-08-11 04:11:00,
2013-08-11 00:13:00,81.4,73.9,30.10,East,85,2.0,4.0,78,0.00,,,0.00,WeatherCatV1.21B27,2013-08-11 04:13:00,
2013-08-11 00:18:00,81.4,73.9,30.10,ENE,73,2.0,5.0,78,0.00,,,0.00,WeatherCatV1.21B27,2013-08-11 04:18:00,
2013-08-11 00:23:00,81.4,74.2,30.10,East,93,1.0,4.0,79,0.00,,,0.00,WeatherCatV1.21B27,2013-08-11 04:23:00,
2013-08-11 00:28:00,81.2,74.1,30.10,East,89,0.0,4.0,79,0.00,,,0.00,WeatherCatV1.21B27,2013-08-11 04:28:00,
2013-08-11 00:33:00,81.1,73.9,30.10,East,101,0.0,4.0,79,0.00,,,0.00,WeatherCatV1.21B27,2013-08-11 04:33:00,
2013-08-11 00:35:00,81.1,73.9,30.11,ENE,78,1.0,4.0,79,0.00,,,0.00,WeatherCatV1.21B27,2013-08-11 04:35:00,
2013-08-11 00:40:00,81.1,73.9,30.10,East,80,1.0,2.0,79,0.00,,,0.00,WeatherCatV1.21B27,2013-08-11 04:40:00,
2013-08-11 00:45:00,81.1,73.9,30.10,East,94,1.0,3.0,79,0.00,,,0.00,WeatherCatV1.21B27,2013-08-11 04:45:00,
2013-08-11 00:50:00,81.1,73.9,30.10,ENE,78,4.0,4.0,79,0.00,,,0.00,WeatherCatV1.21B27,2013-08-11 04:50:00,
2013-08-11 00:55:00,81.0,73.8,30.10,ENE,78,1.0,2.0,79,0.00,,,0.00,WeatherCatV1.21B27,2013-08-11 04:55:00,
2013-08-11 01:00:00,81.0,73.8,30.10,ESE,111,0.0,6.0,79,0.00,,,0.00,WeatherCatV1.21B27,2013-08-11 05:00:00,
2013-08-11 01:05:00,80.9,73.8,30.10,ESE,109,1.0,2.0,79,0.00,,,0.00,WeatherCatV1.21B27,2013-08-11 05:05:00,
2013-08-11 01:10:00,80.8,74.0,30.10,East,86,0.0,2.0,80,0.00,,,0.00,WeatherCatV1.21B27,2013-08-11 05:10:00,
2013-08-11 01:15:00,80.6,73.8,30.10,ENE,67,1.0,4.0,80,0.00,,,0.00,WeatherCatV1.21B27,2013-08-11 05:15:00,
2013-08-11 01:20:00,80.5,73.7,30.10,East,90,0.0,1.0,80,0.00,,,0.00,WeatherCatV1.21B27,2013-08-11 05:20:00,
2013-08-11 01:23:00,80.4,73.7,30.10,East,89,0.0,1.0,80,0.00,,,0.00,WeatherCatV1.21B27,2013-08-11 05:23:00,
2013-08-11 01:28:00,80.2,73.8,30.10,ESE,106,0.0,5.0,81,0.00,,,0.00,WeatherCatV1.21B27,2013-08-11 05:28:00,
2013-08-11 01:33:00,79.9,73.5,30.09,East,98,0.0,2.0,81,0.00,,,0.00,WeatherCatV1.21B27,2013-08-11 05:33:00,
2013-08-11 01:38:00,79.7,73.3,30.10,ENE,69,2.0,2.0,81,0.00,,,0.00,WeatherCatV1.21B27,2013-08-11 05:38:00,
2013-08-11 01:43:00,79.6,73.6,30.09,East,85,0.0,1.0,82,0.00,,,0.00,WeatherCatV1.21B27,2013-08-11 05:43:00,
2013-08-11 01:48:00,79.4,73.4,30.09,East,97,0.0,2.0,82,0.00,,,0.00,WeatherCatV1.21B27,2013-08-11 05:48:00,
2013-08-11 01:53:00,79.3,73.3,30.09,East,97,0.0,1.0,82,0.00,,,0.00,WeatherCatV1.21B27,2013-08-11 05:53:00,
2013-08-11 01:58:00,79.2,73.2,30.09,ENE,78,0.0,1.0,82,0.00,,,0.00,WeatherCatV1.21B27,2013-08-11 05:58:00,
2013-08-11 02:03:00,79.1,73.1,30.09,ESE,111,1.0,2.0,82,0.00,,,0.00,WeatherCatV1.21B27,2013-08-11 06:03:00,
2013-08-11 02:08:00,79.0,73.4,30.09,ESE,103,0.0,4.0,83,0.00,,,0.00,WeatherCatV1.21B27,2013-08-11 06:08:00,
2013-08-11 02:13:00,78.9,73.3,30.09,ESE,119,0.0,2.0,83,0.00,,,0.00,WeatherCatV1.21B27,2013-08-11 06:13:00,
2013-08-11 02:18:00,78.8,73.2,30.09,East,87,2.0,3.0,83,0.00,,,0.00,WeatherCatV1.21B27,2013-08-11 06:18:00,
2013-08-11 02:23:00,78.7,73.1,30.09,East,100,0.0,4.0,83,0.00,,,0.00,WeatherCatV1.21B27,2013-08-11 06:23:00,
2013-08-11 02:28:00,78.7,73.1,30.09,East,92,0.0,2.0,83,0.00,,,0.00,WeatherCatV1.21B27,2013-08-11 06:28:00,
2013-08-11 02:33:00,78.5,72.9,30.09,ESE,115,0.0,1.0,83,0.00,,,0.00,WeatherCatV1.21B27,2013-08-11 06:33:00,
2013-08-11 02:38:00,78.5,72.9,30.09,ESE,110,0.0,1.0,83,0.00,,,0.00,WeatherCatV1.21B27,2013-08-11 06:38:00,
2013-08-11 02:43:00,78.3,73.1,30.09,East,92,0.0,1.0,84,0.00,,,0.00,WeatherCatV1.21B27,2013-08-11 06:43:00,
2013-08-11 02:48:00,78.3,73.1,30.09,ENE,76,1.0,1.0,84,0.00,,,0.00,WeatherCatV1.21B27,2013-08-11 06:48:00,
2013-08-11 02:53:00,78.2,72.9,30.09,ESE,102,1.0,4.0,84,0.00,,,0.00,WeatherCatV1.21B27,2013-08-11 06:53:00,
2013-08-11 02:58:00,78.2,72.9,30.08,ESE,102,0.0,1.0,84,0.00,,,0.00,WeatherCatV1.21B27,2013-08-11 06:58:00,
2013-08-11 03:03:00,78.1,72.9,30.08,ESE,103,0.0,2.0,84,0.00,,,0.00,WeatherCatV1.21B27,2013-08-11 07:03:00,
2013-08-11 03:08:00,77.9,73.0,30.09,East,82,0.0,1.0,85,0.00,,,0.00,WeatherCatV1.21B27,2013-08-11 07:08:00,
2013-08-11 03:13:00,77.8,72.9,30.09,ENE,76,0.0,1.0,85,0.00,,,0.00,WeatherCatV1.21B27,2013-08-11 07:13:00,
2013-08-11 03:18:00,77.7,72.8,30.09,East,88,0.0,4.0,85,0.00,,,0.00,WeatherCatV1.21B27,2013-08-11 07:18:00,
2013-08-11 03:23:00,77.6,72.7,30.09,East,93,2.0,5.0,85,0.00,,,0.00,WeatherCatV1.21B27,2013-08-11 07:23:00,
2013-08-11 03:28:00,77.5,73.0,30.09,ESE,113,0.0,2.0,86,0.00,,,0.00,WeatherCatV1.21B27,2013-08-11 07:28:00,
2013-08-11 03:33:00,77.5,73.0,30.09,East,87,1.0,2.0,86,0.00,,,0.00,WeatherCatV1.21B27,2013-08-11 07:33:00,
2013-08-11 03:38:00,77.5,73.0,30.09,East,85,0.0,2.0,86,0.00,,,0.00,WeatherCatV1.21B27,2013-08-11 07:38:00,
2013-08-11 03:43:00,77.5,73.0,30.09,East,85,0.0,2.0,86,0.00,,,0.00,WeatherCatV1.21B27,2013-08-11 07:43:00,
2013-08-11 03:48:00,77.4,72.9,30.09,East,88,0.0,0.0,86,0.00,,,0.00,WeatherCatV1.21B27,2013-08-11 07:48:00,
2013-08-11 03:53:00,77.3,72.8,30.09,East,88,0.0,0.0,86,0.00,,,0.00,WeatherCatV1.21B27,2013-08-11 07:53:00,
2013-08-11 03:58:00,77.3,73.1,30.09,East,82,1.0,3.0,87,0.00,,,0.00,WeatherCatV1.21B27,2013-08-11 07:58:00,
2013-08-11 04:03:00,77.2,73.0,30.09,ENE,75,0.0,1.0,87,0.00,,,0.00,WeatherCatV1.21B27,2013-08-11 08:03:00,
2013-08-11 04:08:00,77.2,73.0,30.09,ENE,76,2.0,2.0,87,0.00,,,0.00,WeatherCatV1.21B27,2013-08-11 08:08:00,
2013-08-11 04:13:00,77.1,72.9,30.09,ENE,76,1.0,1.0,87,0.00,,,0.00,WeatherCatV1.21B27,2013-08-11 08:13:00,
2013-08-11 04:18:00,77.1,72.9,30.09,East,79,0.0,1.0,87,0.00,,,0.00,WeatherCatV1.21B27,2013-08-11 08:18:00,
2013-08-11 04:23:00,77.0,72.8,30.09,East,79,0.0,0.0,87,0.00,,,0.00,WeatherCatV1.21B27,2013-08-11 08:23:00,
2013-08-11 04:28:00,76.9,72.7,30.09,East,79,0.0,1.0,87,0.00,,,0.00,WeatherCatV1.21B27,2013-08-11 08:28:00,
2013-08-11 04:33:00,76.8,73.0,30.09,ENE,78,0.0,1.0,88,0.00,,,0.00,WeatherCatV1.21B27,2013-08-11 08:33:00,
2013-08-11 04:38:00,76.7,72.9,30.09,ENE,78,0.0,0.0,88,0.00,,,0.00,WeatherCatV1.21B27,2013-08-11 08:38:00,
2013-08-11 04:43:00,76.6,72.8,30.09,ENE,78,0.0,1.0,88,0.00,,,0.00,WeatherCatV1.21B27,2013-08-11 08:43:00,
2013-08-11 04:48:00,76.5,73.0,30.09,ENE,78,0.0,2.0,89,0.00,,,0.00,WeatherCatV1.21B27,2013-08-11 08:48:00,
2013-08-11 04:53:00,76.5,73.0,30.09,ENE,78,0.0,1.0,89,0.00,,,0.00,WeatherCatV1.21B27,2013-08-11 08:53:00,
2013-08-11 04:58:00,76.4,72.9,30.09,East,80,0.0,1.0,89,0.00,,,0.00,WeatherCatV1.21B27,2013-08-11 08:58:00,
2013-08-11 05:03:00,76.4,72.9,30.09,East,80,0.0,1.0,89,0.00,,,0.00,WeatherCatV1.21B27,2013-08-11 09:03:00,
2013-08-11 05:08:00,76.3,72.8,30.09,East,84,0.0,1.0,89,0.00,,,0.00,WeatherCatV1.21B27,2013-08-11 09:08:00,
2013-08-11 05:13:00,76.2,72.7,30.09,East,84,0.0,1.0,89,0.00,,,0.00,WeatherCatV1.21B27,2013-08-11 09:13:00,
2013-08-11 05:18:00,76.2,72.7,30.09,East,87,1.0,2.0,89,0.00,,,0.00,WeatherCatV1.21B27,2013-08-11 09:18:00,
2013-08-11 05:23:00,76.2,73.0,30.09,East,84,1.0,2.0,90,0.00,,,0.00,WeatherCatV1.21B27,2013-08-11 09:23:00,
2013-08-11 05:28:00,76.1,72.6,30.09,East,83,0.0,0.0,89,0.00,,,0.00,WeatherCatV1.21B27,2013-08-11 09:28:00,
2013-08-11 05:33:00,76.1,72.9,30.09,East,83,1.0,2.0,90,0.00,,,0.00,WeatherCatV1.21B27,2013-08-11 09:33:00,
2013-08-11 05:38:00,76.0,72.8,30.10,East,91,1.0,4.0,90,0.00,,,0.00,WeatherCatV1.21B27,2013-08-11 09:38:00,
2013-08-11 05:43:00,76.0,72.8,30.10,East,90,1.0,1.0,90,0.00,,,0.00,WeatherCatV1.21B27,2013-08-11 09:43:00,
2013-08-11 05:48:00,75.9,72.8,30.10,East,90,0.0,2.0,90,0.00,,,0.00,WeatherCatV1.21B27,2013-08-11 09:48:00,
2013-08-11 05:53:00,75.9,72.8,30.10,East,90,0.0,1.0,90,0.00,,,0.00,WeatherCatV1.21B27,2013-08-11 09:53:00,
2013-08-11 05:58:00,75.8,72.7,30.10,East,89,0.0,2.0,90,0.00,,,0.00,WeatherCatV1.21B27,2013-08-11 09:58:00,
2013-08-11 06:03:00,75.8,72.7,30.10,East,89,0.0,2.0,90,0.00,,,0.00,WeatherCatV1.21B27,2013-08-11 10:03:00,
2013-08-11 06:08:00,75.7,72.6,30.10,East,89,1.0,1.0,90,0.00,,,0.00,WeatherCatV1.21B27,2013-08-11 10:08:00,
2013-08-11 06:13:00,75.7,72.9,30.10,East,89,0.0,0.0,91,0.00,,,0.00,WeatherCatV1.21B27,2013-08-11 10:13:00,
2013-08-11 06:18:00,75.6,72.8,30.10,East,89,0.0,0.0,91,0.00,,,0.00,WeatherCatV1.21B27,2013-08-11 10:18:00,
2013-08-11 06:23:00,75.5,72.7,30.10,East,89,0.0,0.0,91,0.00,,,0.00,WeatherCatV1.21B27,2013-08-11 10:23:00,
2013-08-11 06:28:00,75.4,72.6,30.10,East,89,0.0,0.0,91,0.00,,,0.00,WeatherCatV1.21B27,2013-08-11 10:28:00,
2013-08-11 06:33:00,75.4,72.6,30.10,East,89,0.0,1.0,91,0.00,,,0.00,WeatherCatV1.21B27,2013-08-11 10:33:00,
2013-08-11 06:38:00,75.3,72.5,30.10,East,89,0.0,0.0,91,0.00,,,0.00,WeatherCatV1.21B27,2013-08-11 10:38:00,
2013-08-11 06:43:00,75.3,72.5,30.10,East,89,0.0,0.0,91,0.00,,,0.00,WeatherCatV1.21B27,2013-08-11 10:43:00,
2013-08-11 06:48:00,75.2,72.7,30.11,East,89,0.0,0.0,92,0.00,,,0.00,WeatherCatV1.21B27,2013-08-11 10:48:00,
2013-08-11 06:53:00,75.1,72.6,30.11,East,89,0.0,0.0,92,0.00,,,0.00,WeatherCatV1.21B27,2013-08-11 10:53:00,
2013-08-11 06:58:00,75.1,72.6,30.11,East,89,0.0,0.0,92,0.00,,,0.00,WeatherCatV1.21B27,2013-08-11 10:58:00,
2013-08-11 07:03:00,75.0,72.5,30.11,East,89,0.0,0.0,92,0.00,,,0.00,WeatherCatV1.21B27,2013-08-11 11:03:00,
2013-08-11 07:08:00,75.0,72.5,30.11,East,89,0.0,1.0,92,0.00,,,0.00,WeatherCatV1.21B27,2013-08-11 11:08:00,
2013-08-11 07:13:00,75.0,72.8,30.11,East,89,0.0,0.0,93,0.00,,,0.00,WeatherCatV1.21B27,2013-08-11 11:13:00,
2013-08-11 07:18:00,75.0,72.8,30.11,East,89,0.0,0.0,93,0.00,,,0.00,WeatherCatV1.21B27,2013-08-11 11:18:00,
2013-08-11 07:23:00,75.1,72.9,30.11,East,89,0.0,0.0,93,0.00,,,0.00,WeatherCatV1.21B27,2013-08-11 11:23:00,
2013-08-11 07:28:00,75.1,72.9,30.11,East,89,0.0,0.0,93,0.00,,,0.00,WeatherCatV1.21B27,2013-08-11 11:28:00,
2013-08-11 07:33:00,75.2,73.0,30.12,East,89,0.0,0.0,93,0.00,,,0.00,WeatherCatV1.21B27,2013-08-11 11:33:00,
2013-08-11 07:38:00,75.4,73.2,30.12,East,89,0.0,0.0,93,0.00,,,0.00,WeatherCatV1.21B27,2013-08-11 11:38:00,
2013-08-11 07:43:00,75.7,73.5,30.12,East,89,0.0,2.0,93,0.00,,,0.00,WeatherCatV1.21B27,2013-08-11 11:43:00,
2013-08-11 07:48:00,76.0,73.8,30.12,East,89,1.0,2.0,93,0.00,,,0.00,WeatherCatV1.21B27,2013-08-11 11:48:00,
2013-08-11 07:53:00,76.4,74.2,30.12,East,94,0.0,1.0,93,0.00,,,0.00,WeatherCatV1.21B27,2013-08-11 11:53:00,
2013-08-11 07:58:00,76.8,74.3,30.12,East,96,1.0,2.0,92,0.00,,,0.00,WeatherCatV1.21B27,2013-08-11 11:58:00,
2013-08-11 08:03:00,77.3,74.5,30.12,East,98,1.0,1.0,91,0.00,,,0.00,WeatherCatV1.21B27,2013-08-11 12:03:00,
2013-08-11 08:08:00,77.7,74.8,30.12,ENE,75,0.0,2.0,91,0.00,,,0.00,WeatherCatV1.21B27,2013-08-11 12:08:00,
2013-08-11 08:13:00,78.1,74.6,30.12,East,81,1.0,1.0,89,0.00,,,0.00,WeatherCatV1.21B27,2013-08-11 12:13:00,
2013-08-11 08:18:00,78.4,74.9,30.12,East,93,1.0,4.0,89,0.00,,,0.00,WeatherCatV1.21B27,2013-08-11 12:18:00,
2013-08-11 08:23:00,78.8,74.9,30.12,East,98,0.0,2.0,88,0.00,,,0.00,WeatherCatV1.21B27,2013-08-11 12:23:00,
2013-08-11 08:28:00,79.2,75.0,30.12,ENE,78,0.0,5.0,87,0.00,,,0.00,WeatherCatV1.21B27,2013-08-11 12:28:00,
2013-08-11 08:33:00,79.8,75.2,30.12,East,98,2.0,5.0,86,0.00,,,0.00,WeatherCatV1.21B27,2013-08-11 12:33:00,
2013-08-11 08:38:00,80.2,75.3,30.12,ESE,119,0.0,2.0,85,0.00,,,0.00,WeatherCatV1.21B27,2013-08-11 12:38:00,
2013-08-11 08:43:00,80.5,75.6,30.12,ENE,67,0.0,4.0,85,0.00,,,0.00,WeatherCatV1.21B27,2013-08-11 12:43:00,
2013-08-11 08:48:00,80.9,75.6,30.12,SE,128,2.0,5.0,84,0.00,,,0.00,WeatherCatV1.21B27,2013-08-11 12:48:00,
2013-08-11 08:53:00,81.4,75.7,30.12,East,93,4.0,5.0,83,0.00,,,0.00,WeatherCatV1.21B27,2013-08-11 12:53:00,
2013-08-11 08:58:00,81.8,76.1,30.12,ESE,109,0.0,7.0,83,0.00,,,0.00,WeatherCatV1.21B27,2013-08-11 12:58:00,
2013-08-11 09:03:00,82.2,76.1,30.12,SSE,157,0.0,2.0,82,0.00,,,0.00,WeatherCatV1.21B27,2013-08-11 13:03:00,
2013-08-11 09:08:00,82.8,76.7,30.12,East,88,0.0,2.0,82,0.00,,,0.00,WeatherCatV1.21B27,2013-08-11 13:08:00,
2013-08-11 09:13:00,83.4,76.9,30.12,ENE,61,0.0,5.0,81,0.00,,,0.00,WeatherCatV1.21B27,2013-08-11 13:13:00,
2013-08-11 09:18:00,83.9,76.7,30.12,East,101,4.0,8.0,79,0.00,,,0.00,WeatherCatV1.21B27,2013-08-11 13:18:00,
2013-08-11 09:23:00,84.1,76.9,30.12,SSE,168,1.0,4.0,79,0.00,,,0.00,WeatherCatV1.21B27,2013-08-11 13:23:00,
2013-08-11 09:28:00,84.3,76.7,30.12,ESE,110,0.0,6.0,78,0.00,,,0.00,WeatherCatV1.21B27,2013-08-11 13:28:00,
2013-08-11 09:33:00,84.5,76.9,30.12,SSE,155,1.0,6.0,78,0.00,,,0.00,WeatherCatV1.21B27,2013-08-11 13:33:00,
2013-08-11 09:38:00,84.5,76.9,30.12,ESE,108,2.0,7.0,78,0.00,,,0.00,WeatherCatV1.21B27,2013-08-11 13:38:00,
2013-08-11 09:43:00,84.7,76.7,30.12,South,184,2.0,6.0,77,0.00,,,0.00,WeatherCatV1.21B27,2013-08-11 13:43:00,
2013-08-11 09:48:00,84.9,76.5,30.12,ESE,104,2.0,3.0,76,0.00,,,0.00,WeatherCatV1.21B27,2013-08-11 13:48:00,
2013-08-11 09:53:00,85.3,77.2,30.12,SSE,165,1.0,6.0,77,0.00,,,0.00,WeatherCatV1.21B27,2013-08-11 13:53:00,
2013-08-11 09:58:00,85.6,77.1,30.13,ENE,78,3.0,8.0,76,0.00,,,0.00,WeatherCatV1.21B27,2013-08-11 13:58:00,
2013-08-11 10:03:00,85.7,76.8,30.13,ESE,109,6.0,8.0,75,0.00,,,0.00,WeatherCatV1.21B27,2013-08-11 14:03:00,
2013-08-11 10:08:00,85.8,76.9,30.13,East,83,1.0,6.0,75,0.00,,,0.00,WeatherCatV1.21B27,2013-08-11 14:08:00,
2013-08-11 10:13:00,86.2,76.9,30.13,SSE,161,2.0,7.0,74,0.00,,,0.00,WeatherCatV1.21B27,2013-08-11 14:13:00,
2013-08-11 10:18:00,86.5,76.8,30.13,ESE,116,0.0,3.0,73,0.00,,,0.00,WeatherCatV1.21B27,2013-08-11 14:18:00,
2013-08-11 10:23:00,86.8,76.7,30.13,East,82,0.0,5.0,72,0.00,,,0.00,WeatherCatV1.21B27,2013-08-11 14:23:00,
2013-08-11 10:28:00,87.4,76.8,30.13,SE,125,1.0,6.0,71,0.00,,,0.00,WeatherCatV1.21B27,2013-08-11 14:28:00,
2013-08-11 10:33:00,87.8,77.2,30.13,SE,126,0.0,3.0,71,0.00,,,0.00,WeatherCatV1.21B27,2013-08-11 14:33:00,
2013-08-11 10:38:00,88.3,77.7,30.13,ENE,67,2.0,2.0,71,0.00,,,0.00,WeatherCatV1.21B27,2013-08-11 14:38:00,
2013-08-11 10:43:00,88.6,76.7,30.13,ESE,111,3.0,8.0,68,0.00,,,0.00,WeatherCatV1.21B27,2013-08-11 14:43:00,
2013-08-11 10:48:00,88.8,77.3,30.13,ENE,76,2.0,8.0,69,0.00,,,0.00,WeatherCatV1.21B27,2013-08-11 14:48:00,
2013-08-11 10:53:00,88.7,77.2,30.13,ENE,76,3.0,5.0,69,0.00,,,0.00,WeatherCatV1.21B27,2013-08-11 14:53:00,
2013-08-11 10:58:00,88.7,76.8,30.13,East,96,5.0,8.0,68,0.00,,,0.00,WeatherCatV1.21B27,2013-08-11 14:58:00,
2013-08-11 11:03:00,89.0,77.0,30.13,East,88,4.0,6.0,68,0.00,,,0.00,WeatherCatV1.21B27,2013-08-11 15:03:00,
2013-08-11 11:08:00,89.0,77.0,30.13,South,190,0.0,7.0,68,0.00,,,0.00,WeatherCatV1.21B27,2013-08-11 15:08:00,
2013-08-11 11:13:00,89.2,77.7,30.13,East,79,1.0,5.0,69,0.00,,,0.00,WeatherCatV1.21B27,2013-08-11 15:13:00,
2013-08-11 11:18:00,89.5,77.1,30.13,South,189,1.0,6.0,67,0.00,,,0.00,WeatherCatV1.21B27,2013-08-11 15:18:00,
2013-08-11 11:23:00,89.7,77.2,30.13,SSW,198,5.0,7.0,67,0.00,,,0.00,WeatherCatV1.21B27,2013-08-11 15:23:00,
2013-08-11 11:28:00,89.7,77.7,30.13,SSE,165,1.0,6.0,68,0.00,,,0.00,WeatherCatV1.21B27,2013-08-11 15:28:00,
2013-08-11 11:33:00,89.7,76.8,30.13,ESE,107,0.0,6.0,66,0.00,,,0.00,WeatherCatV1.21B27,2013-08-11 15:33:00,
2013-08-11 11:38:00,90.0,77.5,30.13,ESE,107,1.0,7.0,67,0.00,,,0.00,WeatherCatV1.21B27,2013-08-11 15:38:00,
2013-08-11 11:43:00,90.3,77.4,30.13,ESE,120,0.0,7.0,66,0.00,,,0.00,WeatherCatV1.21B27,2013-08-11 15:43:00,
2013-08-11 11:48:00,90.6,78.1,30.13,South,185,2.0,4.0,67,0.00,,,0.00,WeatherCatV1.21B27,2013-08-11 15:48:00,
2013-08-11 11:53:00,91.2,77.8,30.13,South,188,0.0,5.0,65,0.00,,,0.00,WeatherCatV1.21B27,2013-08-11 15:53:00,
2013-08-11 11:58:00,91.5,77.6,30.13,NE,51,1.0,6.0,64,0.00,,,0.00,WeatherCatV1.21B27,2013-08-11 15:58:00,
2013-08-11 12:03:00,91.5,77.6,30.13,NE,34,4.0,5.0,64,0.00,,,0.00,WeatherCatV1.21B27,2013-08-11 16:03:00,
2013-08-11 12:09:00,91.9,77.0,30.12,ENE,65,2.0,6.0,62,0.00,,,0.00,WeatherCatV1.21B27,2013-08-11 16:09:00,
2013-08-11 12:14:00,91.9,77.5,30.12,SE,134,2.0,5.0,63,0.00,,,0.00,WeatherCatV1.21B27,2013-08-11 16:14:00,
2013-08-11 12:19:00,91.9,77.0,30.12,SE,130,0.0,5.0,62,0.00,,,0.00,WeatherCatV1.21B27,2013-08-11 16:19:00,
2013-08-11 12:24:00,92.0,76.6,30.12,SSW,193,0.0,2.0,61,0.00,,,0.00,WeatherCatV1.21B27,2013-08-11 16:24:00,
2013-08-11 12:29:00,92.3,77.3,30.12,ESE,112,2.0,5.0,62,0.00,,,0.00,WeatherCatV1.21B27,2013-08-11 16:29:00,
2013-08-11 12:34:00,92.6,77.6,30.12,SSE,157,4.0,5.0,62,0.00,,,0.00,WeatherCatV1.21B27,2013-08-11 16:34:00,
2013-08-11 12:39:00,92.4,77.4,30.12,South,175,2.0,5.0,62,0.00,,,0.00,WeatherCatV1.21B27,2013-08-11 16:39:00,
2013-08-11 12:44:00,92.6,76.6,30.11,ENE,71,2.0,2.0,60,0.00,,,0.00,WeatherCatV1.21B27,2013-08-11 16:44:00,
2013-08-11 12:49:00,92.8,76.8,30.12,ESE,119,0.0,4.0,60,0.00,,,0.00,WeatherCatV1.21B27,2013-08-11 16:49:00,
2013-08-11 12:54:00,93.0,78.0,30.11,SSE,168,0.0,7.0,62,0.00,,,0.00,WeatherCatV1.21B27,2013-08-11 16:54:00,
2013-08-11 12:59:00,92.9,76.9,30.11,South,178,1.0,5.0,60,0.00,,,0.00,WeatherCatV1.21B27,2013-08-11 16:59:00,
2013-08-11 13:04:00,92.9,77.4,30.11,South,176,0.0,5.0,61,0.00,,,0.00,WeatherCatV1.21B27,2013-08-11 17:04:00,
2013-08-11 13:09:00,92.9,77.4,30.11,South,178,7.0,9.0,61,0.00,,,0.00,WeatherCatV1.21B27,2013-08-11 17:09:00,
2013-08-11 13:14:00,92.9,77.9,30.11,SW,216,1.0,1.0,62,0.00,,,0.00,WeatherCatV1.21B27,2013-08-11 17:14:00,
2013-08-11 13:19:00,93.5,78.0,30.10,SE,144,0.0,2.0,61,0.00,,,0.00,WeatherCatV1.21B27,2013-08-11 17:19:00,
2013-08-11 13:24:00,93.8,77.8,30.10,ESE,103,5.0,6.0,60,0.00,,,0.00,WeatherCatV1.21B27,2013-08-11 17:24:00,
2013-08-11 13:29:00,94.0,75.9,30.10,ESE,113,1.0,3.0,56,0.00,,,0.00,WeatherCatV1.21B27,2013-08-11 17:29:00,
2013-08-11 13:34:00,93.9,75.8,30.10,ENE,69,3.0,6.0,56,0.00,,,0.00,WeatherCatV1.21B27,2013-08-11 17:34:00,
2013-08-11 13:39:00,94.0,76.4,30.10,East,101,1.0,4.0,57,0.00,,,0.00,WeatherCatV1.21B27,2013-08-11 17:39:00,
2013-08-11 13:44:00,94.2,77.6,30.10,East,90,2.0,8.0,59,0.00,,,0.00,WeatherCatV1.21B27,2013-08-11 17:44:00,
2013-08-11 13:49:00,94.6,76.4,30.10,SE,130,3.0,5.0,56,0.00,,,0.00,WeatherCatV1.21B27,2013-08-11 17:49:00,
2013-08-11 13:54:00,94.4,76.8,30.10,South,171,0.0,7.0,57,0.00,,,0.00,WeatherCatV1.21B27,2013-08-11 17:54:00,
2013-08-11 13:59:00,94.4,77.3,30.10,ESE,110,4.0,4.0,58,0.00,,,0.00,WeatherCatV1.21B27,2013-08-11 17:59:00,
2013-08-11 14:04:00,94.2,76.6,30.10,SE,140,1.0,5.0,57,0.00,,,0.00,WeatherCatV1.21B27,2013-08-11 18:04:00,
2013-08-11 14:09:00,94.3,76.7,30.10,ESE,116,1.0,5.0,57,0.00,,,0.00,WeatherCatV1.21B27,2013-08-11 18:09:00,
2013-08-11 14:14:00,94.4,76.8,30.10,East,96,1.0,6.0,57,0.00,,,0.00,WeatherCatV1.21B27,2013-08-11 18:14:00,
2013-08-11 14:19:00,94.7,77.1,30.10,South,175,4.0,7.0,57,0.00,,,0.00,WeatherCatV1.21B27,2013-08-11 18:19:00,
2013-08-11 14:24:00,95.0,76.8,30.10,SSE,153,1.0,2.0,56,0.00,,,0.00,WeatherCatV1.21B27,2013-08-11 18:24:00,
2013-08-11 14:29:00,95.4,76.6,30.10,East,88,4.0,6.0,55,0.00,,,0.00,WeatherCatV1.21B27,2013-08-11 18:29:00,
2013-08-11 14:34:00,95.2,79.6,30.09,South,173,1.0,4.0,61,0.00,,,0.00,WeatherCatV1.21B27,2013-08-11 18:34:00,
2013-08-11 14:39:00,95.0,79.9,30.09,SSW,205,2.0,5.0,62,0.00,,,0.00,WeatherCatV1.21B27,2013-08-11 18:39:00,
2013-08-11 14:44:00,95.2,79.6,30.09,WSW,251,0.0,5.0,61,0.00,,,0.00,WeatherCatV1.21B27,2013-08-11 18:44:00,
2013-08-11 14:49:00,94.6,79.5,30.09,NW,309,0.0,2.0,62,0.00,,,0.00,WeatherCatV1.21B27,2013-08-11 18:49:00,
2013-08-11 14:54:00,94.2,80.1,30.09,NW,305,3.0,8.0,64,0.00,,,0.00,WeatherCatV1.21B27,2013-08-11 18:54:00,
2013-08-11 14:59:00,94.0,80.4,30.09,West,274,1.0,7.0,65,0.00,,,0.00,WeatherCatV1.21B27,2013-08-11 18:59:00,
2013-08-11 15:04:00,94.0,79.9,30.09,WNW,289,2.0,6.0,64,0.00,,,0.00,WeatherCatV1.21B27,2013-08-11 19:04:00,
2013-08-11 15:09:00,94.4,80.8,30.08,West,280,4.0,5.0,65,0.00,,,0.00,WeatherCatV1.21B27,2013-08-11 19:09:00,
2013-08-11 15:14:00,94.8,80.2,30.08,WSW,257,5.0,8.0,63,0.00,,,0.00,WeatherCatV1.21B27,2013-08-11 19:14:00,
2013-08-11 15:19:00,95.2,80.1,30.08,SSW,213,5.0,7.0,62,0.00,,,0.00,WeatherCatV1.21B27,2013-08-11 19:19:00,
2013-08-11 15:24:00,95.3,80.2,30.08,SSW,209,1.0,5.0,62,0.00,,,0.00,WeatherCatV1.21B27,2013-08-11 19:24:00,
2013-08-11 15:29:00,95.0,79.9,30.08,SW,236,1.0,2.0,62,0.00,,,0.00,WeatherCatV1.21B27,2013-08-11 19:29:00,
2013-08-11 15:34:00,95.1,79.5,30.07,WNW,286,6.0,6.0,61,0.00,,,0.00,WeatherCatV1.21B27,2013-08-11 19:34:00,
2013-08-11 15:39:00,95.1,80.5,30.07,West,260,2.0,5.0,63,0.00,,,0.00,WeatherCatV1.21B27,2013-08-11 19:39:00,
2013-08-11 15:44:00,95.0,79.4,30.07,West,265,2.0,2.0,61,0.00,,,0.00,WeatherCatV1.21B27,2013-08-11 19:44:00,
2013-08-11 15:49:00,95.1,80.0,30.07,West,265,2.0,7.0,62,0.00,,,0.00,WeatherCatV1.21B27,2013-08-11 19:49:00,
2013-08-11 15:54:00,95.3,81.2,30.07,West,279,6.0,7.0,64,0.00,,,0.00,WeatherCatV1.21B27,2013-08-11 19:54:00,
2013-08-11 15:59:00,95.0,80.9,30.07,WNW,291,5.0,11.0,64,0.00,,,0.00,WeatherCatV1.21B27,2013-08-11 19:59:00,
2013-08-11 16:04:00,94.6,80.5,30.06,WNW,297,2.0,9.0,64,0.00,,,0.00,WeatherCatV1.21B27,2013-08-11 20:04:00,
2013-08-11 16:09:00,94.2,80.6,30.06,WNW,293,4.0,8.0,65,0.00,,,0.00,WeatherCatV1.21B27,2013-08-11 20:09:00,
2013-08-11 16:14:00,93.8,79.7,30.06,West,281,0.0,1.0,64,0.00,,,0.00,WeatherCatV1.21B27,2013-08-11 20:14:00,
2013-08-11 16:19:00,93.6,80.5,30.06,SW,215,5.0,6.0,66,0.00,,,0.00,WeatherCatV1.21B27,2013-08-11 20:19:00,
2013-08-11 16:24:00,93.5,79.4,30.06,SW,229,0.0,1.0,64,0.00,,,0.00,WeatherCatV1.21B27,2013-08-11 20:24:00,
2013-08-11 16:29:00,93.6,80.5,30.06,West,269,4.0,7.0,66,0.00,,,0.00,WeatherCatV1.21B27,2013-08-11 20:29:00,
2013-08-11 16:34:00,93.5,80.4,30.06,WNW,290,5.0,6.0,66,0.00,,,0.00,WeatherCatV1.21B27,2013-08-11 20:34:00,
2013-08-11 16:39:00,93.1,80.0,30.05,NW,318,8.0,8.0,66,0.00,,,0.00,WeatherCatV1.21B27,2013-08-11 20:39:00,
2013-08-11 16:44:00,92.6,79.5,30.05,NW,314,4.0,5.0,66,0.00,,,0.00,WeatherCatV1.21B27,2013-08-11 20:44:00,
2013-08-11 16:49:00,92.2,79.2,30.05,NW,315,0.0,7.0,66,0.00,,,0.00,WeatherCatV1.21B27,2013-08-11 20:49:00,
2013-08-11 16:54:00,92.3,79.7,30.05,SSE,160,0.0,6.0,67,0.00,,,0.00,WeatherCatV1.21B27,2013-08-11 20:54:00,
2013-08-11 16:59:00,92.1,79.5,30.05,NW,318,6.0,8.0,67,0.00,,,0.00,WeatherCatV1.21B27,2013-08-11 20:59:00,
2013-08-11 17:04:00,91.9,79.3,30.05,WNW,282,4.0,5.0,67,0.00,,,0.00,WeatherCatV1.21B27,2013-08-11 21:04:00,
2013-08-11 17:09:00,91.7,79.2,30.05,WSW,247,2.0,6.0,67,0.00,,,0.00,WeatherCatV1.21B27,2013-08-11 21:09:00,
2013-08-11 17:14:00,91.6,79.1,30.04,West,272,2.0,2.0,67,0.00,,,0.00,WeatherCatV1.21B27,2013-08-11 21:14:00,
2013-08-11 17:19:00,91.6,79.5,30.04,NW,306,4.0,6.0,68,0.00,,,0.00,WeatherCatV1.21B27,2013-08-11 21:19:00,
2013-08-11 17:24:00,91.6,79.5,30.04,NW,325,3.0,6.0,68,0.00,,,0.00,WeatherCatV1.21B27,2013-08-11 21:24:00,
2013-08-11 17:29:00,91.6,79.1,30.04,WNW,287,1.0,7.0,67,0.00,,,0.00,WeatherCatV1.21B27,2013-08-11 21:29:00,
2013-08-11 17:34:00,91.7,78.7,30.04,West,265,0.0,7.0,66,0.00,,,0.00,WeatherCatV1.21B27,2013-08-11 21:34:00,
2013-08-11 17:39:00,91.9,79.3,30.04,West,281,1.0,4.0,67,0.00,,,0.00,WeatherCatV1.21B27,2013-08-11 21:39:00,
2013-08-11 17:44:00,92.0,79.0,30.04,WNW,288,1.0,5.0,66,0.00,,,0.00,WeatherCatV1.21B27,2013-08-11 21:44:00,
2013-08-11 17:49:00,91.9,79.3,30.04,NNW,327,5.0,6.0,67,0.00,,,0.00,WeatherCatV1.21B27,2013-08-11 21:49:00,
2013-08-11 17:54:00,91.7,79.2,30.04,West,276,5.0,5.0,67,0.00,,,0.00,WeatherCatV1.21B27,2013-08-11 21:54:00,
2013-08-11 17:59:00,91.6,79.5,30.04,WSW,252,0.0,4.0,68,0.00,,,0.00,WeatherCatV1.21B27,2013-08-11 21:59:00,
2013-08-11 18:04:00,91.4,78.9,30.04,NW,319,4.0,4.0,67,0.00,,,0.00,WeatherCatV1.21B27,2013-08-11 22:04:00,
2013-08-11 18:09:00,91.3,79.2,30.04,SW,232,1.0,4.0,68,0.00,,,0.00,WeatherCatV1.21B27,2013-08-11 22:09:00,
2013-08-11 18:14:00,91.4,78.9,30.04,West,276,0.0,2.0,67,0.00,,,0.00,WeatherCatV1.21B27,2013-08-11 22:14:00,
2013-08-11 18:19:00,91.4,79.3,30.04,WSW,256,4.0,6.0,68,0.00,,,0.00,WeatherCatV1.21B27,2013-08-11 22:19:00,
2013-08-11 18:24:00,91.3,78.8,30.04,WNW,285,0.0,4.0,67,0.00,,,0.00,WeatherCatV1.21B27,2013-08-11 22:24:00,
2013-08-11 18:29:00,91.2,79.1,30.04,WNW,286,1.0,4.0,68,0.00,,,0.00,WeatherCatV1.21B27,2013-08-11 22:29:00,
2013-08-11 18:34:00,91.0,78.9,30.04,West,277,6.0,7.0,68,0.00,,,0.00,WeatherCatV1.21B27,2013-08-11 22:34:00,
2013-08-11 18:39:00,90.9,79.3,30.04,WNW,288,5.0,6.0,69,0.00,,,0.00,WeatherCatV1.21B27,2013-08-11 22:39:00,
2013-08-11 18:44:00,90.8,78.7,30.04,West,261,2.0,5.0,68,0.00,,,0.00,WeatherCatV1.21B27,2013-08-11 22:44:00,
2013-08-11 18:49:00,90.6,79.0,30.04,WNW,300,1.0,5.0,69,0.00,,,0.00,WeatherCatV1.21B27,2013-08-11 22:49:00,
2013-08-11 18:54:00,90.5,78.9,30.04,WNW,300,2.0,5.0,69,0.00,,,0.00,WeatherCatV1.21B27,2013-08-11 22:54:00,
2013-08-11 18:59:00,90.3,79.2,30.04,West,281,4.0,4.0,70,0.00,,,0.00,WeatherCatV1.21B27,2013-08-11 22:59:00,
2013-08-11 19:04:00,90.2,79.1,30.04,WNW,286,6.0,7.0,70,0.00,,,0.00,WeatherCatV1.21B27,2013-08-11 23:04:00,
2013-08-11 19:09:00,90.1,78.5,30.04,WSW,248,1.0,7.0,69,0.00,,,0.00,WeatherCatV1.21B27,2013-08-11 23:09:00,
2013-08-11 19:14:00,90.0,78.4,30.05,WNW,282,2.0,6.0,69,0.00,,,0.00,WeatherCatV1.21B27,2013-08-11 23:14:00,
2013-08-11 19:19:00,89.9,78.3,30.05,NW,313,3.0,6.0,69,0.00,,,0.00,WeatherCatV1.21B27,2013-08-11 23:19:00,
2013-08-11 19:24:00,89.8,78.7,30.05,NW,310,2.0,2.0,70,0.00,,,0.00,WeatherCatV1.21B27,2013-08-11 23:24:00,
2013-08-11 19:29:00,89.6,78.5,30.05,West,276,5.0,5.0,70,0.00,,,0.00,WeatherCatV1.21B27,2013-08-11 23:29:00,
2013-08-11 19:34:00,89.4,78.3,30.05,NW,304,3.0,5.0,70,0.00,,,0.00,WeatherCatV1.21B27,2013-08-11 23:34:00,
2013-08-11 19:39:00,89.2,78.1,30.05,NW,316,0.0,4.0,70,0.00,,,0.00,WeatherCatV1.21B27,2013-08-11 23:39:00,
2013-08-11 19:44:00,89.0,78.3,30.05,WNW,285,4.0,4.0,71,0.00,,,0.00,WeatherCatV1.21B27,2013-08-11 23:44:00,
2013-08-11 19:49:00,88.8,78.2,30.05,NNW,335,1.0,5.0,71,0.00,,,0.00,WeatherCatV1.21B27,2013-08-11 23:49:00,
2013-08-11 19:54:00,88.5,77.9,30.05,WNW,297,1.0,2.0,71,0.00,,,0.00,WeatherCatV1.21B27,2013-08-11 23:54:00,
2013-08-11 19:59:00,88.4,77.8,30.05,NW,304,3.0,5.0,71,0.00,,,0.00,WeatherCatV1.21B27,2013-08-11 23:59:00,
2013-08-11 20:04:00,88.1,77.5,30.06,WNW,300,5.0,6.0,71,0.00,,,0.00,WeatherCatV1.21B27,2013-08-12 00:04:00,
2013-08-11 20:09:00,87.8,77.6,30.06,NW,313,4.0,6.0,72,0.00,,,0.00,WeatherCatV1.21B27,2013-08-12 00:09:00,
2013-08-11 20:14:00,87.5,77.3,30.06,WNW,295,7.0,7.0,72,0.00,,,0.00,WeatherCatV1.21B27,2013-08-12 00:14:00,
2013-08-11 20:19:00,87.2,77.0,30.06,NW,323,2.0,7.0,72,0.00,,,0.00,WeatherCatV1.21B27,2013-08-12 00:19:00,
2013-08-11 20:24:00,86.9,77.2,30.07,NNW,338,1.0,2.0,73,0.00,,,0.00,WeatherCatV1.21B27,2013-08-12 00:24:00,
2013-08-11 20:29:00,86.7,77.0,30.07,NW,305,8.0,8.0,73,0.00,,,0.00,WeatherCatV1.21B27,2013-08-12 00:29:00,
2013-08-11 20:34:00,86.5,76.8,30.07,NNW,342,1.0,5.0,73,0.00,,,0.00,WeatherCatV1.21B27,2013-08-12 00:34:00,
2013-08-11 20:39:00,86.4,76.7,30.07,NW,320,2.0,4.0,73,0.00,,,0.00,WeatherCatV1.21B27,2013-08-12 00:39:00,
2013-08-11 20:44:00,86.3,77.0,30.07,NW,325,0.0,2.0,74,0.00,,,0.00,WeatherCatV1.21B27,2013-08-12 00:44:00,
2013-08-11 20:49:00,86.1,76.8,30.07,NNW,339,2.0,4.0,74,0.00,,,0.00,WeatherCatV1.21B27,2013-08-12 00:49:00,
2013-08-11 20:54:00,86.0,76.7,30.07,West,273,6.0,6.0,74,0.00,,,0.00,WeatherCatV1.21B27,2013-08-12 00:54:00,
2013-08-11 20:59:00,85.9,76.6,30.07,NW,321,2.0,6.0,74,0.00,,,0.00,WeatherCatV1.21B27,2013-08-12 00:59:00,
2013-08-11 21:04:00,85.8,76.5,30.07,WNW,296,0.0,6.0,74,0.00,,,0.00,WeatherCatV1.21B27,2013-08-12 01:04:00,
2013-08-11 21:09:00,85.6,76.3,30.08,NNW,331,5.0,5.0,74,0.00,,,0.00,WeatherCatV1.21B27,2013-08-12 01:09:00,
2013-08-11 21:14:00,85.6,76.7,30.08,WNW,296,1.0,5.0,75,0.00,,,0.00,WeatherCatV1.21B27,2013-08-12 01:14:00,
2013-08-11 21:19:00,85.6,76.7,30.08,NW,311,4.0,6.0,75,0.00,,,0.00,WeatherCatV1.21B27,2013-08-12 01:19:00,
2013-08-11 21:24:00,85.5,76.6,30.08,WNW,292,1.0,2.0,75,0.00,,,0.00,WeatherCatV1.21B27,2013-08-12 01:24:00,
2013-08-11 21:29:00,85.3,76.8,30.08,NW,323,0.0,4.0,76,0.00,,,0.00,WeatherCatV1.21B27,2013-08-12 01:29:00,
2013-08-11 21:34:00,85.2,76.8,30.08,WNW,288,5.0,5.0,76,0.00,,,0.00,WeatherCatV1.21B27,2013-08-12 01:34:00,
2013-08-11 21:39:00,85.1,76.7,30.08,NNW,335,1.0,6.0,76,0.00,,,0.00,WeatherCatV1.21B27,2013-08-12 01:39:00,
2013-08-11 21:44:00,85.0,77.0,30.09,NNW,330,0.0,0.0,77,0.00,,,0.00,WeatherCatV1.21B27,2013-08-12 01:44:00,
2013-08-11 21:49:00,84.8,76.8,30.09,NNW,327,0.0,5.0,77,0.00,,,0.00,WeatherCatV1.21B27,2013-08-12 01:49:00,
2013-08-11 21:54:00,84.7,76.7,30.09,WNW,286,1.0,1.0,77,0.00,,,0.00,WeatherCatV1.21B27,2013-08-12 01:54:00,
2013-08-11 21:59:00,84.7,76.7,30.09,NW,311,0.0,3.0,77,0.00,,,0.00,WeatherCatV1.21B27,2013-08-12 01:59:00,
2013-08-11 22:04:00,84.6,77.0,30.09,WNW,293,1.0,5.0,78,0.00,,,0.00,WeatherCatV1.21B27,2013-08-12 02:04:00,
2013-08-11 22:09:00,84.4,76.8,30.10,WNW,290,0.0,1.0,78,0.00,,,0.00,WeatherCatV1.21B27,2013-08-12 02:09:00,
2013-08-11 22:14:00,84.3,76.7,30.10,WNW,290,1.0,1.0,78,0.00,,,0.00,WeatherCatV1.21B27,2013-08-12 02:14:00,
2013-08-11 22:19:00,84.2,76.6,30.10,NW,315,0.0,0.0,78,0.00,,,0.00,WeatherCatV1.21B27,2013-08-12 02:19:00,
2013-08-11 22:24:00,84.1,76.9,30.10,NW,315,0.0,0.0,79,0.00,,,0.00,WeatherCatV1.21B27,2013-08-12 02:24:00,
2013-08-11 22:29:00,84.0,76.8,30.10,NNW,346,0.0,0.0,79,0.00,,,0.00,WeatherCatV1.21B27,2013-08-12 02:29:00,
2013-08-11 22:34:00,84.0,76.8,30.10,WNW,296,0.0,0.0,79,0.00,,,0.00,WeatherCatV1.21B27,2013-08-12 02:34:00,
2013-08-11 22:39:00,83.9,76.7,30.10,NW,305,0.0,1.0,79,0.00,,,0.00,WeatherCatV1.21B27,2013-08-12 02:39:00,
2013-08-11 22:44:00,83.8,76.9,30.10,NW,317,2.0,4.0,80,0.00,,,0.00,WeatherCatV1.21B27,2013-08-12 02:44:00,
2013-08-11 22:49:00,83.7,76.8,30.11,NW,323,0.0,3.0,80,0.00,,,0.00,WeatherCatV1.21B27,2013-08-12 02:49:00,
2013-08-11 22:54:00,83.7,76.8,30.11,NW,319,0.0,2.0,80,0.00,,,0.00,WeatherCatV1.21B27,2013-08-12 02:54:00,
2013-08-11 22:59:00,83.7,76.8,30.10,NNW,342,0.0,2.0,80,0.00,,,0.00,WeatherCatV1.21B27,2013-08-12 02:59:00,
2013-08-11 23:04:00,83.7,76.8,30.11,NNW,340,1.0,1.0,80,0.00,,,0.00,WeatherCatV1.21B27,2013-08-12 03:04:00,
2013-08-11 23:09:00,83.7,76.8,30.11,NNW,328,0.0,7.0,80,0.00,,,0.00,WeatherCatV1.21B27,2013-08-12 03:09:00,
2013-08-11 23:14:00,83.8,76.9,30.11,North,5,0.0,2.0,80,0.00,,,0.00,WeatherCatV1.21B27,2013-08-12 03:14:00,
2013-08-11 23:19:00,83.8,76.9,30.11,North,0,0.0,2.0,80,0.00,,,0.00,WeatherCatV1.21B27,2013-08-12 03:19:00,
2013-08-11 23:24:00,83.8,76.9,30.11,NNW,342,1.0,2.0,80,0.00,,,0.00,WeatherCatV1.21B27,2013-08-12 03:24:00,
2013-08-11 23:29:00,83.8,76.9,30.11,North,5,1.0,2.0,80,0.00,,,0.00,WeatherCatV1.21B27,2013-08-12 03:29:00,
2013-08-11 23:34:00,83.8,76.9,30.11,North,355,1.0,1.0,80,0.00,,,0.00,WeatherCatV1.21B27,2013-08-12 03:34:00,
2013-08-11 23:39:00,83.7,76.8,30.11,NNW,330,3.0,5.0,80,0.00,,,0.00,WeatherCatV1.21B27,2013-08-12 03:39:00,
2013-08-11 23:44:00,83.6,76.8,30.11,North,9,1.0,3.0,80,0.00,,,0.00,WeatherCatV1.21B27,2013-08-12 03:44:00,
2013-08-11 23:49:00,83.5,76.7,30.11,North,9,0.0,1.0,80,0.00,,,0.00,WeatherCatV1.21B27,2013-08-12 03:49:00,
2013-08-11 23:54:00,83.4,76.6,30.11,NNE,20,0.0,1.0,80,0.00,,,0.00,WeatherCatV1.21B27,2013-08-12 03:54:00,
2013-08-11 23:59:00,83.4,76.6,30.11,NNE,17,0.0,0.0,80,0.00,,,0.00,WeatherCatV1.21B27,2013-08-12 03:59:00,